Weather Service Report


069 
ASUS44 KLZK 021405
RWRLZK

WEATHER ROUNDUP FOR ARKANSAS
NATIONAL WEATHER SERVICE LITTLE ROCK AR
800 AM CST MON MAR 02 2015

NOTE: "FAIR" INDICATES FEW OR NO CLOUDS BELOW 12,000 FEET WITH NO
SIGNIFICANT WEATHER AND/OR OBSTRUCTIONS TO VISIBILITY.

ARZ001-003-010-029-021500-
NORTHWEST ARKANSAS
  
CITY           SKY/WX    TMP DP  RH WIND       PRES   REMARKS
FAYETTEVILLE   CLOUDY    29  24  82 E9        30.42R WCI  20          
FORT SMITH     CLOUDY    36  32  85 E12G17    30.42F                  
HARRISON       CLOUDY    27  23  85 E9        30.45S WCI  18          
BENTONVILLE    PTSUNNY   28  19  69 E15G21    30.42R WCI  17          
ROGERS         PTSUNNY   27  21  78 E16       30.41F WCI  15          
SILOAM SPGS    CLOUDY    28  19  69 MISG      30.41F                  
HIGHFILL       CLOUDY    29  21  72 E13G23    30.41R WCI  19          
SPRINGDALE     CLOUDY    28  23  80 E13G24    30.42S WCI  18          
$$

ARZ004-005-016-021500-
NORTH CENTRAL ARKANSAS
  
CITY           SKY/WX    TMP DP  RH WIND       PRES   REMARKS
BATESVILLE     CLOUDY    32  21  64 NE7G17    30.51R WCI  26          
FLIPPIN        CLOUDY    28  21  74 CALM      30.49R                  
MTN HOME       SUNNY     28  23  81 E5        30.47F WCI  23          
$$

ARZ040-041-021500-
WEST CENTRAL ARKANSAS
  
CITY           SKY/WX    TMP DP  RH WIND       PRES   REMARKS
MENA           NOT AVBL                                               
MOUNT IDA      MIX PCPN  36  33  89 VRB3      30.39S FOG              
$$

ARZ009-017-025-026-028-021500-
NORTHEAST ARKANSAS
  
CITY           SKY/WX    TMP DP  RH WIND       PRES   REMARKS
JONESBORO      CLOUDY    30  25  81 NE15G26   30.50F WCI  19          
NEWPORT        CLOUDY    32  26  78 NE18      30.51S WCI  20          
WALNUT RIDGE   CLOUDY    30  21  69 NE18      30.52F WCI  18          
BLYTHEVILLE    SUNNY     32  24  72 NE14      30.52R WCI  22          
$$

ARZ022-023-033-042-044-021500-
CENTRAL ARKANSAS
  
CITY           SKY/WX    TMP DP  RH WIND       PRES   REMARKS
LITTLE ROCK    CLOUDY    35  28  75 NE15      30.47R WCI  25          
N LITTLE ROCK  CLOUDY    34  31  88 NE12G17   30.47R WCI  25          
JACKSONVILLE   CLOUDY    35  28  76 NE12      30.46R WCI  26          
SEARCY         CLOUDY    34  26  72 NE16G24   30.49F WCI  24          
HOT SPRINGS    LGT RAIN  36  31  82 NE10      30.44R                  
RUSSELLVILLE   CLOUDY    35  27  72 E8        30.47R WCI  29          
$$

ARZ036-021500-
EAST ARKANSAS
  
CITY           SKY/WX    TMP DP  RH WIND       PRES   REMARKS
WEST MEMPHIS   CLOUDY    34  30  85 NE9       30.47R WCI  27          
$$

ARZ050-053-066-070-073-021500-
SOUTHWEST ARKANSAS
  
CITY           SKY/WX    TMP DP  RH WIND       PRES   REMARKS
ARKADELPHIA    LGT RAIN  37  36  96 NE9       30.44S FOG              
TEXARKANA      CLOUDY    38  37  97 NE9       30.39R FOG              
EL DORADO      LGT RAIN  38  36  92 NE10      30.39R FOG              
DE QUEEN       CLOUDY    39  37  92 E7        30.39R FOG              
$$

ARZ056-057-069-021500-
SOUTHEAST ARKANSAS
  
CITY           SKY/WX    TMP DP  RH WIND       PRES   REMARKS
PINE BLUFF     CLOUDY    34  31  88 NE10      30.43R WCI  26          
STUTTGART      CLOUDY    34  28  80 NE20      30.46S WCI  22          
MONTICELLO     LGT RAIN  36  33  89 NE14G21   30.40S FOG              

$$



Return to Home page


Western Regional Climate Center, wrcc@dri.edu